KAL418 PGUM-RKSI

Flight info

Callsign KAL418
Flight time N/A
Altitude 36000
Route DCT UNZ A597 RICHH DCT 20N140E DCT SABGU G339 LUKRA Y208 INVOK Z91 PSN Y782 BITUX Z53 BASEM Y685 GUKDO GUKDO3C
Aircraft A321/M-SDE3FGHIRWY/LB1

Departure

Time 2026-04-25 09:48
Airport Antonio B. Won Pat International Airport (PGUM)

Arrival

Time N/A
Airport Incheon International Airport (RKSI)
Time Latitude Longitude Altitude Speed Heading
2026-04-25 09:35 13.49161 144.80526 288 ft 0 kts 332°
2026-04-25 09:40 13.49155 144.80529 287 ft 4 kts 332°
2026-04-25 09:40 13.49131 144.80542 294 ft 4 kts 332°
2026-04-25 09:40 13.49108 144.80555 290 ft 4 kts 323°
2026-04-25 09:40 13.49092 144.80574 294 ft 4 kts 276°
2026-04-25 09:41 13.49097 144.80599 292 ft 3 kts 240°
2026-04-25 09:41 13.49101 144.80605 291 ft 0 kts 240°
2026-04-25 09:43 13.49099 144.80603 291 ft 2 kts 240°
2026-04-25 09:43 13.49072 144.80554 290 ft 10 kts 240°
2026-04-25 09:43 13.49036 144.80488 291 ft 13 kts 240°
2026-04-25 09:44 13.48964 144.80400 286 ft 18 kts 222°
2026-04-25 09:44 13.48905 144.80306 289 ft 15 kts 234°
2026-04-25 09:44 13.48847 144.80217 288 ft 16 kts 241°
2026-04-25 09:44 13.48797 144.80113 283 ft 16 kts 244°
2026-04-25 09:45 13.48751 144.80009 278 ft 16 kts 245°
2026-04-25 09:45 13.48703 144.79906 278 ft 16 kts 244°
2026-04-25 09:45 13.48653 144.79795 270 ft 18 kts 244°
2026-04-25 09:45 13.48601 144.79682 269 ft 17 kts 245°
2026-04-25 09:46 13.48550 144.79571 265 ft 17 kts 245°
2026-04-25 09:46 13.48496 144.79455 261 ft 18 kts 244°
2026-04-25 09:46 13.48443 144.79340 260 ft 17 kts 245°
2026-04-25 09:46 13.48393 144.79231 258 ft 17 kts 245°
2026-04-25 09:47 13.48345 144.79122 257 ft 16 kts 245°
2026-04-25 09:47 13.48286 144.79039 257 ft 13 kts 199°
2026-04-25 09:47 13.48217 144.79072 257 ft 10 kts 117°
2026-04-25 09:47 13.48237 144.79150 257 ft 21 kts 64°
2026-04-25 09:48 13.48390 144.79487 261 ft 89 kts 64°
2026-04-25 09:48 13.48752 144.80276 287 ft 151 kts 64°
2026-04-25 09:48 13.49277 144.81403 426 ft 189 kts 64°
2026-04-25 09:48 13.49838 144.82619 1304 ft 188 kts 64°
2026-04-25 09:49 13.50403 144.83858 1672 ft 199 kts 64°
2026-04-25 09:49 13.51022 144.85190 1807 ft 215 kts 60°
2026-04-25 09:49 13.52070 144.86326 1902 ft 235 kts 28°
2026-04-25 09:49 13.53712 144.86688 2180 ft 255 kts 354°
2026-04-25 09:50 13.55350 144.85955 2680 ft 266 kts 327°
2026-04-25 09:50 13.56821 144.84782 3279 ft 269 kts 324°
2026-04-25 09:50 13.58267 144.83540 3916 ft 272 kts 323°
2026-04-25 09:50 13.59711 144.82273 4524 ft 274 kts 323°
2026-04-25 09:51 13.61173 144.80995 5127 ft 277 kts 323°
2026-04-25 09:51 13.62654 144.79716 5680 ft 280 kts 323°
2026-04-25 09:51 13.64160 144.78431 6267 ft 282 kts 323°
2026-04-25 09:51 13.65684 144.77138 6835 ft 285 kts 323°
2026-04-25 09:52 13.67221 144.75836 7385 ft 286 kts 323°
2026-04-25 09:52 13.68768 144.74527 7907 ft 290 kts 323°
2026-04-25 09:52 13.70333 144.73202 8422 ft 292 kts 323°
2026-04-25 09:52 13.71907 144.71868 8926 ft 294 kts 323°
2026-04-25 09:53 13.73493 144.70525 9419 ft 296 kts 322°
2026-04-25 09:53 13.75086 144.69175 9914 ft 297 kts 322°
2026-04-25 09:53 13.76696 144.67813 10251 ft 306 kts 322°
2026-04-25 09:53 13.78381 144.66388 10388 ft 321 kts 322°
2026-04-25 09:54 13.80141 144.64899 10551 ft 335 kts 322°
2026-04-25 09:54 13.81981 144.63338 10686 ft 349 kts 322°
2026-04-25 09:54 13.83890 144.61718 10813 ft 363 kts 322°
2026-04-25 09:54 13.85849 144.60054 10932 ft 375 kts 322°
2026-04-25 09:55 13.87895 144.58321 11116 ft 386 kts 322°
2026-04-25 09:55 13.89996 144.56543 11242 ft 397 kts 322°
2026-04-25 09:55 13.92142 144.54722 11535 ft 402 kts 322°
2026-04-25 09:55 13.94304 144.52886 11939 ft 403 kts 321°
2026-04-25 09:56 13.96466 144.51050 12379 ft 404 kts 321°
2026-04-25 09:56 13.98645 144.49198 12752 ft 406 kts 321°
2026-04-25 09:56 14.00829 144.47341 13102 ft 409 kts 321°
2026-04-25 09:56 14.03026 144.45471 13450 ft 411 kts 321°
2026-04-25 09:57 14.05270 144.43642 13794 ft 412 kts 326°
2026-04-25 09:57 14.07761 144.42171 14110 ft 414 kts 335°
2026-04-25 09:57 14.10361 144.40876 14409 ft 416 kts 335°
2026-04-25 09:57 14.12977 144.39576 14710 ft 418 kts 335°
2026-04-25 09:58 14.15603 144.38271 15032 ft 420 kts 335°
2026-04-25 09:58 14.18245 144.36953 15313 ft 423 kts 335°
2026-04-25 09:58 14.20899 144.35623 15588 ft 425 kts 335°
2026-04-25 09:58 14.23570 144.34283 15861 ft 428 kts 335°
2026-04-25 09:59 14.26252 144.32940 16116 ft 430 kts 335°
2026-04-25 09:59 14.28948 144.31587 16373 ft 432 kts 335°
2026-04-25 09:59 14.31661 144.30224 16633 ft 434 kts 335°
2026-04-25 09:59 14.34380 144.28857 16901 ft 436 kts 335°
2026-04-25 10:00 14.37113 144.27486 17171 ft 437 kts 335°
2026-04-25 10:00 14.39818 144.26126 17393 ft 440 kts 335°
2026-04-25 10:00 14.42583 144.24733 17628 ft 442 kts 335°
2026-04-25 10:00 14.45352 144.23339 17870 ft 444 kts 335°
2026-04-25 10:01 14.48136 144.21941 18110 ft 446 kts 335°
2026-04-25 10:01 14.50935 144.20538 18335 ft 448 kts 335°
2026-04-25 10:01 14.53744 144.19128 18564 ft 450 kts 335°
2026-04-25 10:01 14.56560 144.17716 18775 ft 452 kts 335°
2026-04-25 10:02 14.59395 144.16295 18989 ft 453 kts 335°
2026-04-25 10:02 14.62236 144.14867 19201 ft 455 kts 335°
2026-04-25 10:02 14.65086 144.13428 19412 ft 456 kts 335°
2026-04-25 10:02 14.67948 144.11983 19600 ft 458 kts 335°
2026-04-25 10:03 14.70818 144.10533 19807 ft 460 kts 335°
2026-04-25 10:03 14.73695 144.09079 20002 ft 461 kts 335°
2026-04-25 10:03 14.76581 144.07625 20201 ft 463 kts 335°
2026-04-25 10:03 14.79485 144.06164 20391 ft 464 kts 335°
2026-04-25 10:04 14.82392 144.04702 20584 ft 466 kts 335°
2026-04-25 10:04 14.85308 144.03231 20759 ft 467 kts 335°
2026-04-25 10:04 14.88231 144.01753 20938 ft 468 kts 335°
2026-04-25 10:04 14.91161 144.00269 21116 ft 470 kts 335°
2026-04-25 10:05 14.94106 143.98780 21293 ft 471 kts 335°
2026-04-25 10:05 14.97060 143.97288 21453 ft 474 kts 335°
2026-04-25 10:05 15.00025 143.95781 21627 ft 475 kts 334°
2026-04-25 10:05 15.02991 143.94265 21786 ft 476 kts 334°
2026-04-25 10:06 15.05965 143.92738 21950 ft 478 kts 334°
2026-04-25 10:06 15.08945 143.91203 22105 ft 479 kts 334°
2026-04-25 10:06 15.11931 143.89670 22261 ft 480 kts 334°
2026-04-25 10:06 15.14933 143.88134 22417 ft 481 kts 334°
2026-04-25 10:07 15.17938 143.86595 22562 ft 483 kts 334°
2026-04-25 10:07 15.20911 143.85073 22699 ft 484 kts 334°
2026-04-25 10:07 15.23967 143.83507 22843 ft 485 kts 334°
2026-04-25 10:07 15.26957 143.81972 22993 ft 486 kts 334°
2026-04-25 10:08 15.29989 143.80415 23142 ft 487 kts 334°
2026-04-25 10:08 15.33031 143.78852 23312 ft 488 kts 334°
2026-04-25 10:08 15.36072 143.77288 23542 ft 487 kts 334°
2026-04-25 10:08 15.39109 143.75729 23757 ft 487 kts 334°
2026-04-25 10:09 15.42144 143.74171 23959 ft 487 kts 334°
2026-04-25 10:09 15.45181 143.72610 24176 ft 487 kts 334°
2026-04-25 10:09 15.48212 143.71052 24389 ft 486 kts 334°
2026-04-25 10:09 15.51241 143.69496 24610 ft 486 kts 334°
2026-04-25 10:10 15.54267 143.67941 24840 ft 485 kts 334°
2026-04-25 10:10 15.57290 143.66384 25072 ft 484 kts 334°
2026-04-25 10:10 15.60309 143.64832 25301 ft 484 kts 334°
2026-04-25 10:10 15.63327 143.63276 25550 ft 483 kts 334°
2026-04-25 10:11 15.66334 143.61722 25768 ft 483 kts 334°
2026-04-25 10:11 15.69337 143.60170 26010 ft 482 kts 334°
2026-04-25 10:11 15.72342 143.58620 26246 ft 481 kts 334°
2026-04-25 10:11 15.75338 143.57077 26485 ft 481 kts 334°
2026-04-25 10:12 15.78333 143.55535 26725 ft 480 kts 334°
2026-04-25 10:12 15.81324 143.53994 26964 ft 479 kts 334°
2026-04-25 10:12 15.87291 143.50917 27429 ft 478 kts 334°
2026-04-25 10:13 15.90268 143.49379 27663 ft 477 kts 334°
2026-04-25 10:13 15.93198 143.47862 27891 ft 477 kts 334°
2026-04-25 10:13 15.96168 143.46322 28132 ft 476 kts 334°
2026-04-25 10:13 15.99131 143.44789 28388 ft 476 kts 334°
2026-04-25 10:14 16.02091 143.43258 28620 ft 475 kts 334°
2026-04-25 10:14 16.05045 143.41731 28828 ft 475 kts 335°
2026-04-25 10:14 16.08002 143.40206 29025 ft 475 kts 335°
2026-04-25 10:14 16.10965 143.38674 29237 ft 474 kts 335°
2026-04-25 10:15 16.13921 143.37142 29449 ft 474 kts 335°
2026-04-25 10:15 16.16869 143.35613 29667 ft 474 kts 335°
2026-04-25 10:15 16.19822 143.34080 29876 ft 473 kts 335°
2026-04-25 10:15 16.22765 143.32550 30087 ft 473 kts 335°
2026-04-25 10:16 16.25708 143.31022 30295 ft 472 kts 335°
2026-04-25 10:16 16.28644 143.29497 30506 ft 472 kts 335°
2026-04-25 10:16 16.31577 143.27972 30714 ft 471 kts 335°
2026-04-25 10:16 16.34508 143.26450 30925 ft 471 kts 335°
2026-04-25 10:17 16.37438 143.24932 31144 ft 470 kts 334°
2026-04-25 10:17 16.40362 143.23414 31377 ft 469 kts 334°
2026-04-25 10:17 16.43278 143.21898 31594 ft 468 kts 334°
2026-04-25 10:17 16.46194 143.20383 31803 ft 468 kts 334°
2026-04-25 10:18 16.49103 143.18869 32016 ft 467 kts 334°
2026-04-25 10:18 16.52010 143.17357 32230 ft 466 kts 334°
2026-04-25 10:18 16.54909 143.15850 32442 ft 465 kts 334°
2026-04-25 10:18 16.57809 143.14344 32644 ft 465 kts 334°
2026-04-25 10:19 16.60700 143.12841 32855 ft 465 kts 334°
2026-04-25 10:19 16.63595 143.11333 33066 ft 464 kts 334°
2026-04-25 10:19 16.66476 143.09833 33265 ft 463 kts 334°
2026-04-25 10:19 16.69320 143.08351 33460 ft 462 kts 334°
2026-04-25 10:20 16.72192 143.06854 33648 ft 461 kts 334°
2026-04-25 10:20 16.75062 143.05357 33828 ft 461 kts 334°
2026-04-25 10:20 16.77927 143.03861 33991 ft 461 kts 334°
2026-04-25 10:21 16.83704 143.00845 34041 ft 467 kts 334°
2026-04-25 10:21 16.88566 142.98299 34040 ft 472 kts 334°
2026-04-25 10:22 16.94448 142.95222 34028 ft 473 kts 334°
2026-04-25 10:22 17.00380 142.92125 34037 ft 474 kts 334°
2026-04-25 10:23 17.06240 142.89055 34040 ft 474 kts 334°
2026-04-25 10:23 17.12135 142.85963 34042 ft 474 kts 334°
2026-04-25 10:24 17.18019 142.82831 34034 ft 475 kts 330°
2026-04-25 10:24 17.23194 142.78557 34033 ft 475 kts 317°
2026-04-25 10:25 17.28013 142.73799 34045 ft 476 kts 317°
2026-04-25 10:25 17.32847 142.69052 34046 ft 477 kts 317°
2026-04-25 10:26 17.37686 142.64301 34046 ft 477 kts 317°
2026-04-25 10:26 17.42525 142.59532 34049 ft 478 kts 317°
2026-04-25 10:27 17.47338 142.54789 34050 ft 478 kts 317°
2026-04-25 10:27 17.52175 142.50006 34051 ft 478 kts 317°
2026-04-25 10:28 17.57007 142.45223 34049 ft 477 kts 317°
2026-04-25 10:28 17.61834 142.40442 34050 ft 477 kts 317°
2026-04-25 10:29 17.66666 142.35667 34047 ft 477 kts 317°
2026-04-25 10:29 17.71487 142.30897 34034 ft 477 kts 317°
2026-04-25 10:30 17.76306 142.26121 34034 ft 477 kts 317°
2026-04-25 10:30 17.81123 142.21333 34046 ft 477 kts 316°
2026-04-25 10:31 17.85941 142.16547 34046 ft 477 kts 316°
2026-04-25 10:31 17.90762 142.11763 34049 ft 477 kts 316°
2026-04-25 10:32 17.95588 142.06965 34049 ft 477 kts 316°
2026-04-25 10:32 18.00376 142.02207 34047 ft 478 kts 316°
2026-04-25 10:33 18.05192 141.97402 34041 ft 478 kts 317°
2026-04-25 10:33 18.10017 141.92601 34045 ft 477 kts 316°
2026-04-25 10:34 18.14833 141.87793 34046 ft 477 kts 316°
2026-04-25 10:34 18.19641 141.82985 34045 ft 477 kts 316°
2026-04-25 10:35 18.24453 141.78177 34044 ft 477 kts 316°
2026-04-25 10:35 18.29260 141.73373 34035 ft 477 kts 316°
2026-04-25 10:36 18.34070 141.68563 34045 ft 477 kts 316°
2026-04-25 10:36 18.38878 141.63740 34045 ft 477 kts 316°
2026-04-25 10:37 18.43699 141.58915 34047 ft 478 kts 316°
2026-04-25 10:37 18.48514 141.54085 34048 ft 478 kts 316°
2026-04-25 10:38 18.53323 141.49251 34044 ft 478 kts 316°
2026-04-25 10:38 18.58135 141.44408 34045 ft 478 kts 316°
2026-04-25 10:39 18.62952 141.39567 34049 ft 478 kts 316°
2026-04-25 10:39 18.67738 141.34756 34048 ft 478 kts 316°
2026-04-25 10:40 18.72559 141.29901 34050 ft 479 kts 316°
2026-04-25 10:40 18.77379 141.25047 34053 ft 479 kts 316°
2026-04-25 10:41 18.82194 141.20185 34054 ft 479 kts 316°
2026-04-25 10:41 18.86988 141.15345 34052 ft 479 kts 316°
2026-04-25 10:42 18.91806 141.10477 34046 ft 479 kts 316°
2026-04-25 10:42 18.96625 141.05594 34052 ft 480 kts 315°
2026-04-25 10:43 19.01449 141.00703 34054 ft 480 kts 315°
2026-04-25 10:43 19.06268 140.95821 34053 ft 480 kts 315°
2026-04-25 10:44 19.11088 140.90932 34050 ft 480 kts 315°
2026-04-25 10:44 19.15900 140.86045 34051 ft 480 kts 315°
2026-04-25 10:45 19.20726 140.81151 34051 ft 480 kts 315°
2026-04-25 10:45 19.25546 140.76259 34054 ft 480 kts 315°
2026-04-25 10:46 19.30363 140.71351 34053 ft 480 kts 315°
2026-04-25 10:46 19.35145 140.66471 34051 ft 481 kts 315°
2026-04-25 10:47 19.39964 140.61568 34054 ft 480 kts 315°
2026-04-25 10:47 19.44781 140.56656 34052 ft 481 kts 315°
2026-04-25 10:48 19.49596 140.51740 34048 ft 480 kts 315°
2026-04-25 10:48 19.54413 140.46822 34047 ft 481 kts 315°
2026-04-25 10:49 19.59229 140.41890 34046 ft 481 kts 315°
2026-04-25 10:49 19.64058 140.36951 34045 ft 482 kts 315°
2026-04-25 10:50 19.68884 140.32004 34050 ft 482 kts 315°
2026-04-25 10:50 19.73676 140.27082 34054 ft 483 kts 315°
2026-04-25 10:51 19.78509 140.22122 34056 ft 483 kts 315°
2026-04-25 10:51 19.83342 140.17153 34057 ft 483 kts 314°
2026-04-25 10:52 19.88180 140.12181 34059 ft 484 kts 314°
2026-04-25 10:52 19.93013 140.07208 34059 ft 484 kts 314°
2026-04-25 10:53 19.97852 140.02225 34060 ft 484 kts 314°
2026-04-25 10:53 20.02771 139.97340 34058 ft 484 kts 318°
2026-04-25 10:54 20.08012 139.92820 34061 ft 485 kts 321°
2026-04-25 10:54 20.13351 139.88421 34062 ft 485 kts 321°
2026-04-25 10:55 20.18627 139.83946 34062 ft 485 kts 320°
2026-04-25 10:55 20.23802 139.79421 34061 ft 485 kts 319°
2026-04-25 10:56 20.29009 139.74847 34063 ft 485 kts 319°
2026-04-25 10:56 20.34227 139.70301 34064 ft 485 kts 319°
2026-04-25 10:57 20.39453 139.65753 34066 ft 485 kts 319°
2026-04-25 10:57 20.44680 139.61203 34065 ft 485 kts 319°
2026-04-25 10:58 20.49897 139.56656 34065 ft 484 kts 319°
2026-04-25 10:58 20.55114 139.52101 34065 ft 484 kts 319°
2026-04-25 10:59 20.60328 139.47551 34065 ft 484 kts 319°
2026-04-25 10:59 20.65509 139.43021 34070 ft 484 kts 319°
2026-04-25 11:00 20.70714 139.38461 34074 ft 484 kts 319°
2026-04-25 11:00 20.75919 139.33892 34073 ft 484 kts 319°
2026-04-25 11:01 20.81122 139.29331 34074 ft 484 kts 319°
2026-04-25 11:01 20.86325 139.24773 34073 ft 483 kts 318°
2026-04-25 11:02 20.91527 139.20201 34078 ft 483 kts 318°
2026-04-25 11:02 20.96719 139.15631 34076 ft 483 kts 318°
2026-04-25 11:03 21.01911 139.11062 34072 ft 483 kts 318°
2026-04-25 11:03 21.07096 139.06488 34074 ft 483 kts 318°
2026-04-25 11:04 21.12265 139.01927 34071 ft 483 kts 318°
2026-04-25 11:04 21.17452 138.97354 34073 ft 483 kts 318°
2026-04-25 11:05 21.26180 138.89657 34081 ft 483 kts 318°
2026-04-25 11:05 21.46893 138.71285 34079 ft 482 kts 317°
2026-04-25 11:06 21.67546 138.52935 34081 ft 481 kts 317°
2026-04-25 11:06 21.88135 138.34541 34077 ft 480 kts 317°
2026-04-25 11:07 22.08632 138.16164 34077 ft 479 kts 317°
2026-04-25 11:07 22.29107 137.97735 34074 ft 478 kts 317°
2026-04-25 11:08 22.46060 137.82419 34080 ft 478 kts 317°
2026-04-25 11:08 22.66482 137.63921 34078 ft 478 kts 317°
2026-04-25 11:09 22.86900 137.45331 34075 ft 479 kts 316°
2026-04-25 11:09 23.07278 137.26735 34070 ft 479 kts 316°
2026-04-25 11:10 23.27683 137.07985 34072 ft 479 kts 316°
2026-04-25 11:10 23.48024 136.89244 34068 ft 479 kts 316°
2026-04-25 11:11 23.68364 136.70425 34083 ft 479 kts 316°
2026-04-25 11:11 23.88688 136.51559 34083 ft 479 kts 315°
2026-04-25 11:12 24.00057 136.40942 34069 ft 479 kts 315°
2026-04-25 11:12 24.05093 136.36239 34076 ft 479 kts 315°
2026-04-25 11:13 24.10160 136.31501 34079 ft 479 kts 315°
2026-04-25 11:13 24.15241 136.26748 34074 ft 479 kts 315°
2026-04-25 11:14 24.20305 136.22007 34073 ft 479 kts 315°
2026-04-25 11:14 24.25331 136.17293 34084 ft 478 kts 315°
2026-04-25 11:15 24.30417 136.12521 34087 ft 478 kts 315°
2026-04-25 11:15 24.35443 136.07806 34082 ft 478 kts 315°
2026-04-25 11:16 24.43017 136.00670 34082 ft 478 kts 315°
2026-04-25 11:16 24.48058 135.95905 34089 ft 478 kts 315°
2026-04-25 11:17 24.53100 135.91150 34083 ft 478 kts 315°
2026-04-25 11:17 24.58139 135.86398 34087 ft 477 kts 315°
2026-04-25 11:18 24.63175 135.81631 34092 ft 477 kts 314°
2026-04-25 11:18 24.68183 135.76895 34092 ft 478 kts 314°
2026-04-25 11:19 24.73221 135.72119 34096 ft 478 kts 314°
2026-04-25 11:19 24.78247 135.67349 34088 ft 477 kts 314°
2026-04-25 11:20 24.83269 135.62579 34089 ft 477 kts 314°
2026-04-25 11:20 24.88285 135.57810 34093 ft 476 kts 314°
2026-04-25 11:21 24.93299 135.53047 34086 ft 476 kts 314°
2026-04-25 11:21 24.98266 135.48309 34084 ft 475 kts 314°
2026-04-25 11:22 25.02423 135.44339 34086 ft 475 kts 314°
2026-04-25 11:22 25.08257 135.38763 34082 ft 474 kts 314°
2026-04-25 11:23 25.13244 135.33999 34077 ft 473 kts 314°
2026-04-25 11:23 25.18190 135.29250 34074 ft 473 kts 314°
2026-04-25 11:24 25.23164 135.24488 34073 ft 473 kts 314°
2026-04-25 11:24 25.28144 135.19725 34075 ft 473 kts 314°
2026-04-25 11:25 25.33114 135.14957 34073 ft 473 kts 313°
2026-04-25 11:25 25.38071 135.10181 34072 ft 473 kts 313°
2026-04-25 11:26 25.43034 135.05395 34076 ft 472 kts 313°
2026-04-25 11:26 25.47990 135.00620 34072 ft 472 kts 313°
2026-04-25 11:27 25.53278 134.96239 34074 ft 477 kts 320°
2026-04-25 11:27 25.57834 134.92796 34070 ft 477 kts 320°
2026-04-25 11:28 25.64196 134.87974 34071 ft 476 kts 320°
2026-04-25 11:28 25.69656 134.83823 34069 ft 476 kts 320°
2026-04-25 11:29 25.75117 134.79668 34068 ft 476 kts 320°
2026-04-25 11:29 25.80571 134.75505 34070 ft 476 kts 319°
2026-04-25 11:30 25.86024 134.71349 34070 ft 475 kts 320°
2026-04-25 11:30 25.91473 134.67194 34069 ft 475 kts 319°
2026-04-25 11:31 25.96921 134.63031 34067 ft 475 kts 319°
2026-04-25 11:31 26.02368 134.58863 34071 ft 475 kts 319°
2026-04-25 11:32 26.07800 134.54697 34074 ft 474 kts 319°
2026-04-25 11:32 26.13232 134.50540 34078 ft 474 kts 319°
2026-04-25 11:33 26.18623 134.46405 34078 ft 473 kts 319°
2026-04-25 11:33 26.24039 134.42236 34074 ft 473 kts 319°
2026-04-25 11:34 26.29446 134.38072 34073 ft 472 kts 319°
2026-04-25 11:34 26.34852 134.33911 34071 ft 472 kts 319°
2026-04-25 11:35 26.40252 134.29746 34071 ft 472 kts 319°
2026-04-25 11:35 26.45651 134.25570 34075 ft 472 kts 319°
2026-04-25 11:36 26.51023 134.21418 34071 ft 472 kts 318°
2026-04-25 11:36 26.56424 134.17247 34071 ft 472 kts 318°
2026-04-25 11:37 26.61820 134.13063 34072 ft 472 kts 318°
2026-04-25 11:37 26.67212 134.08879 34079 ft 472 kts 318°
2026-04-25 11:38 26.72606 134.04693 34079 ft 472 kts 318°
2026-04-25 11:38 26.77989 134.00506 34079 ft 471 kts 318°
2026-04-25 11:39 26.83367 133.96317 34073 ft 471 kts 317°
2026-04-25 11:39 26.88736 133.92130 34075 ft 470 kts 317°
2026-04-25 11:40 26.94095 133.87937 34075 ft 469 kts 317°
2026-04-25 11:40 26.96763 133.85846 34297 ft 468 kts 317°
2026-04-25 11:40 26.99432 133.83760 34526 ft 467 kts 317°
2026-04-25 11:41 27.02099 133.81678 34705 ft 466 kts 317°
2026-04-25 11:41 27.04760 133.79601 34881 ft 466 kts 316°
2026-04-25 11:41 27.07416 133.77519 35059 ft 466 kts 316°
2026-04-25 11:41 27.10068 133.75440 35245 ft 465 kts 316°
2026-04-25 11:42 27.12724 133.73357 35416 ft 465 kts 316°
2026-04-25 11:42 27.15371 133.71283 35590 ft 464 kts 316°
2026-04-25 11:42 27.18023 133.69205 35757 ft 464 kts 316°
2026-04-25 11:42 27.20669 133.67127 35930 ft 463 kts 316°
2026-04-25 11:43 27.23310 133.65047 36035 ft 464 kts 316°
2026-04-25 11:43 27.25949 133.62968 36053 ft 464 kts 316°
2026-04-25 11:43 27.31229 133.58808 36053 ft 463 kts 316°
2026-04-25 11:44 27.36329 133.54791 36058 ft 463 kts 316°
2026-04-25 11:44 27.41600 133.50636 36059 ft 463 kts 316°
2026-04-25 11:45 27.46836 133.46495 36050 ft 462 kts 315°
2026-04-25 11:45 27.52099 133.42323 36050 ft 462 kts 315°
2026-04-25 11:46 27.57365 133.38159 36053 ft 462 kts 315°
2026-04-25 11:46 27.62639 133.33996 36058 ft 463 kts 315°
2026-04-25 11:47 27.67902 133.29817 36066 ft 463 kts 315°
2026-04-25 11:47 27.73162 133.25624 36065 ft 463 kts 315°
2026-04-25 11:48 27.78423 133.21436 36070 ft 463 kts 315°
2026-04-25 11:48 27.83695 133.17241 36068 ft 463 kts 315°
2026-04-25 11:49 27.88950 133.13043 36070 ft 462 kts 315°
2026-04-25 11:49 27.94179 133.08884 36066 ft 463 kts 315°
2026-04-25 11:50 27.99441 133.04708 35567 ft 461 kts 315°
2026-04-25 11:50 28.02062 133.02618 34832 ft 461 kts 314°
2026-04-25 11:50 28.04687 133.00518 34115 ft 462 kts 314°
2026-04-25 11:51 28.07308 132.98416 33384 ft 462 kts 314°
2026-04-25 11:51 28.09931 132.96310 32607 ft 464 kts 314°
2026-04-25 11:51 28.12562 132.94201 32197 ft 463 kts 315°
2026-04-25 11:51 28.15203 132.92086 32012 ft 466 kts 315°
2026-04-25 11:52 28.20515 132.87833 32053 ft 468 kts 315°
2026-04-25 11:52 28.25834 132.83571 32054 ft 468 kts 315°
2026-04-25 11:53 28.31152 132.79298 32055 ft 468 kts 315°
2026-04-25 11:53 28.36477 132.75018 32054 ft 468 kts 315°
2026-04-25 11:54 28.41810 132.70727 32055 ft 469 kts 315°
2026-04-25 11:55 28.49725 132.64340 32063 ft 470 kts 315°
2026-04-25 11:55 28.54144 132.60755 32064 ft 470 kts 314°
2026-04-25 11:56 28.60327 132.55738 32062 ft 470 kts 314°
2026-04-25 11:56 28.65649 132.51427 32064 ft 470 kts 315°
2026-04-25 11:57 28.70972 132.47118 32064 ft 469 kts 314°
2026-04-25 11:57 28.75380 132.43534 32063 ft 468 kts 314°
2026-04-25 11:58 28.80669 132.39225 32063 ft 467 kts 314°
2026-04-25 11:58 28.85968 132.34898 32063 ft 467 kts 314°
2026-04-25 11:59 28.91256 132.30574 32063 ft 467 kts 314°
2026-04-25 11:59 28.96539 132.26262 32063 ft 466 kts 314°
2026-04-25 12:00 29.04445 132.19804 32063 ft 465 kts 314°
2026-04-25 12:01 29.12330 132.13340 32063 ft 465 kts 314°
2026-04-25 12:01 29.17578 132.09030 32065 ft 464 kts 314°
2026-04-25 12:02 29.25427 132.02570 32073 ft 463 kts 314°
2026-04-25 12:02 29.30664 131.98262 32073 ft 464 kts 313°
2026-04-25 12:03 29.35901 131.93945 32072 ft 463 kts 313°
2026-04-25 12:03 29.41123 131.89627 32072 ft 462 kts 313°
2026-04-25 12:04 29.46336 131.85303 32073 ft 462 kts 313°
2026-04-25 12:04 29.51524 131.81007 32073 ft 461 kts 313°
2026-04-25 12:05 29.56728 131.76690 32072 ft 461 kts 313°
2026-04-25 12:05 29.61994 131.72430 32072 ft 465 kts 315°
2026-04-25 12:06 29.67436 131.68437 32073 ft 468 kts 317°
2026-04-25 12:06 29.72959 131.64482 32073 ft 467 kts 317°
2026-04-25 12:07 29.78430 131.60469 32073 ft 466 kts 316°
2026-04-25 12:07 29.83877 131.56410 32072 ft 466 kts 316°
2026-04-25 12:08 29.89314 131.52350 32082 ft 466 kts 316°
2026-04-25 12:08 29.94758 131.48294 32082 ft 466 kts 316°
2026-04-25 12:09 30.00208 131.44236 32082 ft 466 kts 316°
2026-04-25 12:10 30.10961 131.36226 32082 ft 463 kts 315°
2026-04-25 12:10 30.16328 131.32211 32080 ft 462 kts 315°
2026-04-25 12:11 30.21725 131.28163 32081 ft 463 kts 315°
2026-04-25 12:11 30.27141 131.24102 32083 ft 464 kts 315°
2026-04-25 12:12 30.31666 131.20710 32083 ft 462 kts 315°
2026-04-25 12:12 30.37937 131.15986 32082 ft 462 kts 315°
2026-04-25 12:13 30.43322 131.11923 32084 ft 462 kts 315°
2026-04-25 12:13 30.46140 131.10043 32077 ft 474 kts 323°
2026-04-25 12:13 30.49238 131.08646 32081 ft 489 kts 332°
2026-04-25 12:14 30.55893 131.06613 32081 ft 493 kts 334°
2026-04-25 12:14 30.62548 131.04584 32082 ft 495 kts 334°
2026-04-25 12:15 30.69217 131.02524 32083 ft 496 kts 334°
2026-04-25 12:15 30.75887 131.00467 32082 ft 495 kts 333°
2026-04-25 12:16 30.82547 130.98417 32092 ft 494 kts 333°